OK2ARM-12 Weather Reports


time (UTC)temp
C
wind
direction
speed
KPH
gust
KPH
rain 1hr
cm
rain 24hr
cm
rain mn
cm
humidity
%
barometer
mb
20260502231040 14 0.0 0.0 0.00 0.00 0.00 34 1020.0
20260502224815 15 0.0 0.0 0.00 0.00 0.00 32 1020.2
20260502222550 15 0.0 0.0 0.00 0.00 0.00 33 1020.2
20260502221550 15 0.0 0.0 0.00 0.00 0.00 34 1020.2
20260502220550 15 0.0 0.0 0.00 0.00 0.00 36 1020.2
20260502215550 15 0.0 0.0 0.00 0.00 0.00 36 1020.2
20260502214550 15 0.0 0.0 0.00 0.00 0.00 34 1020.3
20260502213550 15 0.0 0.0 0.00 0.00 0.00 32 1020.2
20260502212550 15 0.0 0.0 0.00 0.00 0.00 31 1020.3
20260502211550 15 0.0 0.0 0.00 0.00 0.00 31 1020.3
20260502210550 16 0.0 0.0 0.00 0.00 0.00 31 1020.4
20260502205550 15 0.0 0.0 0.00 0.00 0.00 31 1020.4
20260502204550 16 0.0 0.0 0.00 0.00 0.00 31 1020.4
20260502203550 16 0.0 0.0 0.00 0.00 0.00 31 1020.5
20260502202550 15 0.0 0.0 0.00 0.00 0.00 32 1020.6
20260502201550 15 0.0 0.0 0.00 0.00 0.00 32 1020.6
20260502200550 15 0.0 0.0 0.00 0.00 0.00 32 1020.7
20260502194326 16 0.0 0.0 0.00 0.00 0.00 31 1020.8
20260502193326 16 0.0 0.0 0.00 0.00 0.00 31 1020.7
20260502192326 16 0.0 0.0 0.00 0.00 0.00 32 1020.7
20260502191326 16 0.0 0.0 0.00 0.00 0.00 32 1020.7
20260502190327 16 0.0 0.0 0.00 0.00 0.00 31 1020.6
20260502185326 17 0.0 0.0 0.00 0.00 0.00 31 1020.5
20260502184326 17 0.0 0.0 0.00 0.00 0.00 28 1020.5
20260502183326 18 0.0 0.0 0.00 0.00 0.00 23 1020.4
20260502181101 18 0.0 0.0 0.00 0.00 0.00 22 1020.1
20260502164102 20 0.0 0.0 0.00 0.00 0.00 20 1020.5
20260502163102 20 0.0 0.0 0.00 0.00 0.00 19 1020.5
20260502162102 20 0.0 0.0 0.00 0.00 0.00 20 1020.7
20260502161101 20 0.0 0.0 0.00 0.00 0.00 20 1020.8
20260502151612 20 0.0 0.0 0.00 0.00 0.00 18 1021.4
20260502150613 20 0.0 0.0 0.00 0.00 0.00 19 1021.5
20260502140125 20 0.0 0.0 0.00 0.00 0.00 20 1022.1
20260502122901 20 0.0 0.0 0.00 0.00 0.00 20 1023.1
20260502121901 18 0.0 0.0 0.00 0.00 0.00 20 1023.3
20260502120901 18 0.0 0.0 0.00 0.00 0.00 22 1023.3
20260502115901 20 0.0 0.0 0.00 0.00 0.00 23 1023.4
20260502114901 18 0.0 0.0 0.00 0.00 0.00 22 1023.5
20260502113900 20 0.0 0.0 0.00 0.00 0.00 24 1023.7
20260502112900 18 0.0 0.0 0.00 0.00 0.00 28 1023.8
20260502111901 18 0.0 0.0 0.00 0.00 0.00 23 1024.0
20260502110901 18 0.0 0.0 0.00 0.00 0.00 25 1024.1
20260502105901 18 0.0 0.0 0.00 0.00 0.00 27 1024.3
20260502104901 18 0.0 0.0 0.00 0.00 0.00 27 1024.3
20260502103900 17 0.0 0.0 0.00 0.00 0.00 27 1024.4
20260502102900 17 0.0 0.0 0.00 0.00 0.00 29 1024.5
20260502101901 18 0.0 0.0 0.00 0.00 0.00 30 1024.7
20260502100901 17 0.0 0.0 0.00 0.00 0.00 29 1024.7
20260502071149 15 0.0 0.0 0.00 0.00 0.00 39 1026.0
20260502070149 15 0.0 0.0 0.00 0.00 0.00 40 1025.9
20260502065149 15 0.0 0.0 0.00 0.00 0.00 40 1026.0
20260502064150 15 0.0 0.0 0.00 0.00 0.00 40 1026.1
20260502063149 15 0.0 0.0 0.00 0.00 0.00 40 1026.0
20260502062149 15 0.0 0.0 0.00 0.00 0.00 42 1026.0
20260502061149 15 0.0 0.0 0.00 0.00 0.00 41 1026.1
20260502060149 14 0.0 0.0 0.00 0.00 0.00 41 1026.1
20260502055149 14 0.0 0.0 0.00 0.00 0.00 42 1026.0
20260502052926 13 0.0 0.0 0.00 0.00 0.00 42 1026.0
20260502051925 13 0.0 0.0 0.00 0.00 0.00 43 1026.1
20260502050925 13 0.0 0.0 0.00 0.00 0.00 44 1026.0
20260502045925 12 0.0 0.0 0.00 0.00 0.00 44 1026.0
20260502044925 12 0.0 0.0 0.00 0.00 0.00 44 1025.9
20260502043925 12 0.0 0.0 0.00 0.00 0.00 44 1026.0
20260502041701 12 0.0 0.0 0.00 0.00 0.00 45 1025.8
20260502035437 12 0.0 0.0 0.00 0.00 0.00 45 1025.8
20260502034438 12 0.0 0.0 0.00 0.00 0.00 45 1025.8
20260502033438 12 0.0 0.0 0.00 0.00 0.00 45 1025.8
20260502032438 12 0.0 0.0 0.00 0.00 0.00 45 1025.7
20260502031438 12 0.0 0.0 0.00 0.00 0.00 45 1025.7
20260502030437 12 0.0 0.0 0.00 0.00 0.00 44 1025.8
20260502025438 12 0.0 0.0 0.00 0.00 0.00 44 1025.8
20260502024437 12 0.0 0.0 0.00 0.00 0.00 44 1025.8
20260502023438 12 0.0 0.0 0.00 0.00 0.00 44 1025.9
20260502021214 12 0.0 0.0 0.00 0.00 0.00 45 1025.9
20260502020213 12 0.0 0.0 0.00 0.00 0.00 45 1026.0
20260502015214 12 0.0 0.0 0.00 0.00 0.00 46 1026.0
20260502014214 11 0.0 0.0 0.00 0.00 0.00 47 1026.1
20260502013215 11 0.0 0.0 0.00 0.00 0.00 48 1026.1
20260502012214 11 0.0 0.0 0.00 0.00 0.00 47 1026.1
20260502011214 12 0.0 0.0 0.00 0.00 0.00 46 1026.1
20260502010214 12 0.0 0.0 0.00 0.00 0.00 46 1026.1
20260502005213 12 0.0 0.0 0.00 0.00 0.00 45 1026.1
20260502004214 12 0.0 0.0 0.00 0.00 0.00 45 1026.2
20260502003213 12 0.0 0.0 0.00 0.00 0.00 45 1026.2
20260502002213 12 0.0 0.0 0.00 0.00 0.00 46 1026.2
20260501235950 12 0.0 0.0 0.00 0.00 0.00 46 1026.3
20260501234949 11 0.0 0.0 0.00 0.00 0.00 47 1026.4
20260501233949 11 0.0 0.0 0.00 0.00 0.00 48 1026.4
20260501232949 11 0.0 0.0 0.00 0.00 0.00 47 1026.5